Location: River House Observatory
(37.8577°N, 76.3548°W)
Time: 14:27:36
(UTC-04:00)

Daily predictions for brighter satellites

Satellite Brightness Start Highest point End
(mag) Time Altitude Azimuth Time Altitude Azimuth Time Altitude Azimuth
Cosmos 968 Rocket 3.5 20:52:59 10° SSW 20:58:09 87° ESE 21:03:24 10° NNE
Cosmos 2219 4.4 20:54:06 10° SSE 20:58:20 21° E 21:02:33 10° NE
CZ-4 DEB 2.9 21:00:51 10° S 21:04:02 78° WSW 21:07:15 10° NNW
Cosmos 1553 Rocket 4.1 20:58:32 10° N 21:04:54 69° E 21:11:11 10° SSE
Tiangong 1 2.6 21:04:36 10° S 21:06:45 17° SE 21:08:54 10° E
Cosmos 1441 Rocket 3.1 21:04:55 10° S 21:08:40 66° E 21:12:24 10° NNE
SPOT 5 3.9 21:05:15 10° SE 21:09:07 28° ENE 21:13:11 10° N
Cosmos 1151 Rocket 4.0 21:07:06 10° NNE 21:10:56 31° ENE 21:14:47 10° SE
Cosmos 2322 Rocket 2.3 21:05:26 10° NNW 21:11:04 82° WSW 21:16:40 10° SSE
AVUM R/B 2.3 21:14:16 10° SSW 21:16:30 66° ESE 21:18:56 10° NNE
Cosmos 1980 Rocket 4.2 21:15:08 10° NW 21:19:41 25° WSW 21:24:15 10° SSW
In-Cosmos 22 4.4 21:14:17 10° S 21:20:02 81° W 21:25:49 10° N
Cosmos 2360 Rocket 2.8 21:15:14 10° N 21:20:36 43° ENE 21:25:33 12° SE
YAOGAN 11 4.5 21:17:06 10° S 21:21:21 65° WSW 21:25:41 10° NNW
SJ-11-01 4.3 21:16:56 10° SSE 21:21:39 87° ENE 21:26:25 10° NNW
Envisat 3.3 21:16:49 10° SSE 21:21:44 52° ENE 21:26:40 10° N
SL-16 R/B 2.5 21:16:10 10° NNW 21:21:49 71° WSW 21:27:27 10° SSE
PSLV R/B 4.5 21:22:12 13° SE 21:24:21 25° ENE 21:26:57 10° NNE
ERS-1 Rocket 3.1 21:20:43 10° SSE 21:25:45 83° WSW 21:30:49 10° NNW
Cosmos 304 Rocket 4.4 21:23:11 10° N 21:27:45 40° ENE 21:31:32 14° SE
Cosmos 1437 3.5 21:25:16 10° SSE 21:28:14 33° E 21:31:14 10° NNE
Meteor 2-20 4.4 21:22:46 10° S 21:28:54 77° E 21:35:03 10° N
Cosmos 1908 3.3 21:27:43 10° N 21:31:35 61° E 21:35:08 12° SSE
H-2A R/B 2.2 21:28:30 10° SSE 21:33:02 87° ENE 21:37:35 10° NNW
Cosmos 1328 Rocket 4.3 21:32:59 10° NNW 21:37:19 53° W 21:41:37 10° S
Cosmos 1777 Rocket 4.5 21:33:37 10° SSW 21:38:50 66° WNW 21:44:05 10° NNE
NOSS 3-1 (C) 3.7 21:35:47 10° S 21:41:11 43° ESE 21:47:04 10° NE
DELTA 2 R/B (1) 3.6 21:36:31 10° WNW 21:42:05 87° SSW 21:46:52 14° ESE
Cosmos 1674 2.7 21:38:23 10° S 21:42:12 88° W 21:46:05 10° N
Cosmos 2227 Rocket 3.9 21:45:18 12° ESE 21:45:51 13° E 21:48:07 10° ENE
ATLAS CENTAUR R/B 3.9 21:44:05 10° WNW 21:46:46 16° WSW 21:49:20 10° SW
Cosmos 1939 Rocket 3.3 21:46:37 10° S 21:50:31 57° W 21:54:23 10° NNW
Cosmos 1300 3.6 21:51:56 10° NNE 21:55:26 32° ENE 21:56:54 24° ESE
Cosmos 405 3.3 21:53:24 10° NNW 21:57:01 67° W 21:59:42 17° S
Cosmos 2333 Rocket 4.1 21:53:56 10° NNE 21:57:39 17° NE 22:01:13 10° E
H-2A R/B 3.6 21:58:29 16° ESE 22:01:12 23° ENE 22:05:23 10° NNE
Cosmos 1437 Rocket 3.9 21:58:15 10° NNW 22:01:49 39° W 22:05:25 10° SSW
Terra 3.6 22:00:09 14° E 22:02:08 18° ENE 22:05:22 10° NNE
YAOGAN 6 2.7 22:00:51 27° SSE 22:02:39 61° ENE 22:06:14 10° N
CZ-4 SHROUD 3.7 22:08:07 24° S 22:09:47 54° W 22:12:52 10° NNW
COSMOS 2428 3.1 22:04:21 10° NNW 22:09:54 52° ENE 22:13:00 25° SE
Cosmos 1680 Rocket 3.5 22:05:42 10° NNW 22:10:57 80° WSW 22:14:22 22° S
Cosmos 2297 Rocket 3.9 22:13:14 15° E 22:13:14 15° E 22:16:06 10° ENE
SPOT 1/Viking Rocket 3.5 22:10:08 25° SSE 22:13:11 70° ENE 22:18:20 10° N
CZ-4B R/B 3.5 22:07:57 10° NNE 22:13:15 80° ESE 22:17:54 13° S
Delta 2 Rocket 2.8 22:10:42 10° WSW 22:14:11 59° S 22:15:00 43° ESE
OAO 2 Rocket 3.8 22:10:49 10° SW 22:15:45 40° SSE 22:18:12 25° ESE
MetOp-A 4.3 22:12:54 19° S 22:16:48 74° WSW 22:22:10 10° NNW
Cosmos 1455 4.3 22:15:59 10° NE 22:17:59 14° ENE 22:18:08 14° ENE
ARGOS 3.2 22:18:17 27° SSE 22:21:15 70° ENE 22:26:37 10° N
Cosmos 2219 Rocket 3.2 22:17:14 10° N 22:22:16 33° ENE 22:24:46 23° ESE
CZ-4 R/B 3.8 22:17:32 10° NNE 22:22:29 70° ESE 22:25:21 24° S
Cosmos 1898 Rocket 3.5 22:19:08 20° S 22:22:36 62° ESE 22:27:45 10° NNE
Cosmos 2242 Rocket 4.2 22:18:36 10° N 22:22:53 42° E 22:24:09 33° ESE
FALCON 9 R/B 4.2 21:53:15 10° WSW 22:26:32 76° S 22:33:41 12° E
Cosmos 2150 Rocket 4.0 22:22:49 18° S 22:26:55 71° ESE 22:32:23 10° NNE
CZ-4C R/B 3.6 22:26:40 38° E 22:27:04 39° ENE 22:30:20 10° N
Cosmos 858 Rocket 4.4 22:25:57 24° S 22:29:06 65° ESE 22:34:16 10° NNE
Cosmos 2237 4.2 22:25:48 10° NNW 22:31:34 85° ENE 22:34:15 33° SSE
USA 245 2.7 22:32:07 56° W 22:32:07 56° W 22:34:24 10° NNW
DELTA 2 DEB (DPAF) 4.3 22:31:49 39° SE 22:33:12 57° ENE 22:37:36 10° N
CARTOSAT-1 4.3 22:34:08 33° E 22:35:02 37° ENE 22:39:02 10° N
SL-08 RB Rocket 3.6 22:34:43 40° SSE 22:36:18 83° ENE 22:40:48 10° N
Sich 1 3.0 22:34:24 32° S 22:36:27 88° W 22:40:53 10° N
Cosmos 1633 Rocket 3.0 22:36:53 34° S 22:38:44 88° W 22:43:09 10° N
Cosmos 2219 4.1 22:36:30 10° SW 22:42:03 49° WNW 22:47:38 10° NNE
Cosmos 1726 2.1 22:38:33 10° N 22:42:20 78° W 22:43:05 55° SSW
Tiangong 1 1.3 22:39:58 10° WSW 22:42:38 61° W 22:42:38 61° W
NOSS 3-1 (A) 3.4 22:38:37 10° SW 22:44:27 84° WNW 22:50:55 10° NNE
DMSP B5D2-2 4.2 22:41:32 10° NNE 22:46:37 52° E 22:47:50 43° SE
SL-14 R/B 4.1 22:48:33 27° SW 22:50:21 49° W 22:54:14 10° N
Cosmos 1703 3.1 22:50:00 67° S 22:50:30 85° E 22:54:25 10° N
Cosmos 2333 4.2 22:45:06 10° NNW 22:50:51 90° ENE 22:52:56 42° SSE
Cosmos 1271 Rocket 2.5 22:47:31 10° N 22:51:22 80° E 22:51:38 73° SE
Cosmos 2237 Rocket 3.0 22:47:02 10° N 22:52:21 38° ENE 22:54:11 30° E
Cosmos 2082 3.9 22:52:45 43° SSE 22:54:02 51° ESE 22:59:35 10° NNE
USA 32 4.0 22:54:31 10° N 22:59:48 79° W 23:01:35 42° S
Iridium 2 3.6 23:01:04 73° SW 23:01:19 78° W 23:05:11 10° N
Cosmos 1241 Rocket 4.3 22:59:19 34° S 23:02:07 68° ESE 23:08:18 10° NE
COSMOS 2455 4.4 22:58:49 10° N 23:03:46 26° NE 23:06:26 19° E
Cosmos 2360 Rocket 3.9 22:59:50 10° NW 23:04:17 24° WSW 23:07:20 16° SW
ATLAS 2AS CENTAUR R/B 3.0 23:03:27 34° S 23:06:45 58° ESE 23:14:32 10° NE
Meteor 2-10 4.2 23:01:10 10° N 23:06:55 88° W 23:08:39 47° S
Meteor 1-4 Rocket 3.2 23:06:05 10° NNW 23:09:44 50° W 23:09:49 50° W
Nadezhda 1 Rocket 3.8 23:09:29 10° N 23:15:36 90° E 23:17:27 48° S
Cosmos 1626 2.5 23:20:38 64° NNW 23:20:38 64° NNW 23:23:53 10° N
IGS 5A 3.5 23:21:56 71° WSW 23:21:57 71° W 23:26:07 10° NNW
Cosmos 1937 Rocket 4.2 23:20:01 23° SW 23:23:06 50° WNW 23:28:10 10° N
Cosmos 1745 Rocket 4.4 23:22:22 29° SSW 23:25:33 58° W 23:31:39 10° N
ATLAS 3B R/B 3.6 23:20:40 10° NNW 23:27:12 40° NE 23:30:03 27° E
DELTA 2 R/B (1) 4.4 23:23:15 10° W 23:27:37 34° SW 23:27:37 34° SW
Cosmos 2227 Rocket 2.2 23:27:04 41° SW 23:29:07 77° WNW 23:34:49 10° NNE
Cosmos 1470 Rocket 4.2 23:28:45 44° WSW 23:29:24 48° W 23:33:35 10° N
Cosmos 1933 Rocket 4.2 23:29:58 44° WSW 23:30:42 49° W 23:35:04 10° N
Cosmos 292 Rocket 4.3 23:26:29 10° NNW 23:31:02 45° WSW 23:31:27 44° WSW
Cosmos 1709 Rocket 3.9 23:32:45 58° SSE 23:33:52 72° E 23:39:58 10° N
Cosmos 1703 Rocket 4.3 23:31:23 10° N 23:35:00 42° NE 23:35:00 42° NE
Terra 2.5 23:39:02 42° WSW 23:39:30 44° W 23:44:04 10° NNW
Spot 4 4.1 23:39:31 56° WSW 23:39:52 58° W 23:44:40 10° NNW
H-2A R/B 2.9 23:39:08 37° SW 23:40:16 42° W 23:45:25 10° NNW
Cosmos 2221 Rocket 4.2 23:36:17 10° N 23:40:13 47° ENE 23:40:13 47° ENE
Cosmos 2333 Rocket 2.2 23:36:45 10° NNW 23:42:30 71° WSW 23:43:13 63° SSW
SL-16 R/B 2.7 23:39:35 10° N 23:45:03 46° ENE 23:45:52 43° E
Cosmos 1269 Rocket 4.1 23:42:35 10° N 23:47:52 61° ENE 23:48:05 60° E
NOSS 0 Rocket 4.1 23:42:19 10° NNW 23:48:19 57° WSW 23:49:18 51° SW
COSMOS 2428 4.5 23:49:45 10° NW 23:53:41 20° W 23:55:01 18° WSW
Cosmos 1455 3.8 23:50:24 10° NNW 23:53:10 30° WNW 23:53:10 30° WNW
